When you browse on this site, cookies collect data to enhance your experience and personalize the content and advertising you see.
Visit our Privacy Policy to learn more. By continuing to use the site, you agree to this use of cookies and data.
  • In Latvia
  • List of Countries
  • For 7 days
  • Water Temperature
  • Weather Map
  • Weather Widgets
  • user-avatar
    Login

    Hourly Weather Ghadamis

    Today, 20 January, Monday

    Time Temperature Precipitation Wind Pressure Humidity
    00:00 +11°C° 0 mm 6 mps 734 mmHg 36%
    01:00 +10°C° 0 mm 6 mps 733 mmHg 37%
    02:00 +10°C° 0 mm 6 mps 733 mmHg 38%
    03:00 +10°C° 0 mm 6 mps 733 mmHg 39%
    04:00 +10°C° 0 mm 6 mps 733 mmHg 40%
    05:00 +10°C° 0 mm 6 mps 733 mmHg 39%
    06:00 +10°C° 0 mm 6 mps 733 mmHg 37%
    07:00 +9°C° 0 mm 6 mps 733 mmHg 36%
    08:00 +11°C° 0 mm 7 mps 733 mmHg 31%
    09:00 +13°C° 0 mm 8 mps 733 mmHg 26%
    10:00 +16°C° 0 mm 9 mps 733 mmHg 21%
    11:00 +18°C° 0 mm 9 mps 733 mmHg 18%
    12:00 +21°C° 0 mm 9 mps 733 mmHg 15%
    13:00 +22°C° 0 mm 9 mps 733 mmHg 13%
    14:00 +23°C° 0 mm 8 mps 733 mmHg 12%
    15:00 +23°C° 0 mm 7 mps 733 mmHg 12%
    16:00 +23°C° 0 mm 7 mps 732 mmHg 12%
    17:00 +21°C° 0 mm 7 mps 733 mmHg 14%
    18:00 +20°C° 0 mm 6 mps 733 mmHg 16%
    19:00 +17°C° 0 mm 6 mps 733 mmHg 18%
    20:00 +16°C° 0 mm 7 mps 733 mmHg 21%
    21:00 +15°C° 0 mm 7 mps 734 mmHg 23%
    22:00 +13°C° 0 mm 8 mps 734 mmHg 26%
    23:00 +13°C° 0 mm 9 mps 734 mmHg 27%

    Tomorrow, 21 January, Tuesday

    Time Temperature Precipitation Wind Pressure Humidity
    00:00 +13°C° 0 mm 9 mps 734 mmHg 27%
    01:00 +13°C° 0 mm 10 mps 734 mmHg 28%
    02:00 +13°C° 0 mm 10 mps 734 mmHg 28%
    03:00 +13°C° 0 mm 10 mps 734 mmHg 28%
    04:00 +13°C° 0 mm 10 mps 734 mmHg 27%
    05:00 +13°C° 0 mm 10 mps 734 mmHg 28%
    06:00 +12°C° 0 mm 10 mps 735 mmHg 29%
    07:00 +12°C° 0 mm 10 mps 735 mmHg 30%
    08:00 +13°C° 0 mm 10 mps 735 mmHg 28%
    09:00 +16°C° 0 mm 10 mps 736 mmHg 26%
    10:00 +17°C° 0 mm 10 mps 736 mmHg 24%
    11:00 +19°C° 0 mm 10 mps 736 mmHg 22%
    12:00 +22°C° 0 mm 9 mps 736 mmHg 19%
    13:00 +24°C° 0 mm 9 mps 736 mmHg 16%
    14:00 +26°C° 0 mm 8 mps 735 mmHg 16%
    15:00 +26°C° 0 mm 7 mps 735 mmHg 16%
    16:00 +26°C° 0 mm 7 mps 735 mmHg 15%
    17:00 +23°C° 0 mm 7 mps 735 mmHg 18%
    18:00 +21°C° 0 mm 7 mps 735 mmHg 20%
    19:00 +20°C° 0 mm 6 mps 735 mmHg 23%
    20:00 +18°C° 0 mm 7 mps 736 mmHg 24%
    21:00 +17°C° 0 mm 8 mps 736 mmHg 26%
    22:00 +16°C° 0 mm 9 mps 736 mmHg 28%
    23:00 +16°C° 0 mm 8 mps 736 mmHg 29%

    Day after tomorrow, 22 January, Wednesday

    Time Temperature Precipitation Wind Pressure Humidity
    00:00 +15°C° 0 mm 8 mps 736 mmHg 30%
    01:00 +15°C° 0 mm 8 mps 736 mmHg 32%
    02:00 +13°C° 0 mm 8 mps 736 mmHg 33%
    03:00 +13°C° 0 mm 8 mps 737 mmHg 35%
    04:00 +14°C° 0 mm 7 mps 737 mmHg 36%
    05:00 +14°C° 0 mm 7 mps 737 mmHg 37%
    06:00 +12°C° 0 mm 7 mps 737 mmHg 38%
    07:00 +13°C° 0 mm 6 mps 737 mmHg 39%
    08:00 +14°C° 0 mm 7 mps 737 mmHg 36%
    09:00 +16°C° 0 mm 8 mps 738 mmHg 32%
    10:00 +17°C° 0 mm 8 mps 738 mmHg 29%
    11:00 +20°C° 0 mm 8 mps 737 mmHg 25%
    12:00 +22°C° 0 mm 8 mps 737 mmHg 22%
    13:00 +24°C° 0 mm 7 mps 737 mmHg 18%
    14:00 +24°C° 0 mm 7 mps 736 mmHg 18%
    15:00 +26°C° 0 mm 7 mps 736 mmHg 17%
    16:00 +26°C° 0 mm 7 mps 736 mmHg 17%
    17:00 +23°C° 0 mm 7 mps 736 mmHg 20%
    18:00 +21°C° 0 mm 7 mps 736 mmHg 22%
    19:00 +20°C° 0 mm 7 mps 736 mmHg 25%
    20:00 +18°C° 0 mm 7 mps 736 mmHg 28%
    21:00 +16°C° 0 mm 7 mps 737 mmHg 31%
    22:00 +15°C° 0 mm 7 mps 737 mmHg 33%
    23:00 +15°C° 0 mm 7 mps 737 mmHg 34%

    23 January, Thursday

    Time Temperature Precipitation Wind Pressure Humidity
    00:00 +15°C° 0 mm 6 mps 737 mmHg 35%
    01:00 +14°C° 0 mm 6 mps 737 mmHg 36%
    02:00 +14°C° 0 mm 6 mps 736 mmHg 36%
    03:00 +14°C° 0 mm 5 mps 736 mmHg 36%
    04:00 +13°C° 0 mm 5 mps 736 mmHg 36%
    05:00 +13°C° 0 mm 5 mps 736 mmHg 36%
    06:00 +13°C° 0 mm 5 mps 736 mmHg 36%
    07:00 +12°C° 0 mm 5 mps 736 mmHg 35%
    08:00 +14°C° 0 mm 5 mps 736 mmHg 32%
    09:00 +16°C° 0 mm 6 mps 737 mmHg 28%
    10:00 +17°C° 0 mm 6 mps 737 mmHg 24%
    11:00 +20°C° 0 mm 6 mps 737 mmHg 21%
    12:00 +23°C° 0 mm 5 mps 737 mmHg 17%
    13:00 +26°C° 0 mm 5 mps 736 mmHg 14%
    14:00 +26°C° 0 mm 4 mps 736 mmHg 14%
    15:00 +27°C° 0 mm 4 mps 736 mmHg 13%
    16:00 +27°C° 0 mm 4 mps 736 mmHg 13%
    17:00 +26°C° 0 mm 4 mps 736 mmHg 14%
    18:00 +23°C° 0 mm 4 mps 736 mmHg 16%
    19:00 +21°C° 0 mm 5 mps 736 mmHg 17%
    20:00 +20°C° 0 mm 5 mps 736 mmHg 18%
    21:00 +19°C° 0 mm 5 mps 736 mmHg 19%
    22:00 +17°C° 0 mm 6 mps 737 mmHg 20%
    23:00 +16°C° 0 mm 6 mps 736 mmHg 20%

    24 January, Friday

    Time Temperature Precipitation Wind Pressure Humidity
    00:00 +16°C° 0 mm 5 mps 736 mmHg 21%
    01:00 +15°C° 0 mm 5 mps 736 mmHg 21%
    02:00 +15°C° 0 mm 5 mps 736 mmHg 21%
    03:00 +14°C° 0 mm 5 mps 736 mmHg 21%
    04:00 +14°C° 0 mm 5 mps 736 mmHg 21%
    05:00 +14°C° 0 mm 5 mps 736 mmHg 21%
    06:00 +14°C° 0 mm 5 mps 736 mmHg 21%
    07:00 +13°C° 0 mm 4 mps 736 mmHg 21%
    08:00 +15°C° 0 mm 5 mps 737 mmHg 19%
    09:00 +17°C° 0 mm 5 mps 737 mmHg 17%
    10:00 +19°C° 0 mm 5 mps 737 mmHg 15%
    11:00 +22°C° 0 mm 5 mps 737 mmHg 13%
    12:00 +25°C° 0 mm 5 mps 737 mmHg 11%
    13:00 +27°C° 0 mm 4 mps 737 mmHg 9%
    14:00 +28°C° 0 mm 4 mps 736 mmHg 8%
    15:00 +28°C° 0 mm 4 mps 736 mmHg 8%
    16:00 +29°C° 0 mm 4 mps 736 mmHg 8%
    17:00 +27°C° 0 mm 5 mps 736 mmHg 9%
    18:00 +25°C° 0 mm 5 mps 736 mmHg 10%
    19:00 +22°C° 0 mm 5 mps 736 mmHg 11%
    20:00 +21°C° 0 mm 5 mps 736 mmHg 13%
    21:00 +20°C° 0 mm 6 mps 736 mmHg 14%
    22:00 +19°C° 0 mm 6 mps 737 mmHg 15%
    23:00 +17°C° 0 mm 6 mps 736 mmHg 16%

    25 January, Saturday

    Time Temperature Precipitation Wind Pressure Humidity
    00:00 +17°C° 0 mm 6 mps 736 mmHg 16%
    01:00 +17°C° 0 mm 6 mps 736 mmHg 17%
    02:00 +17°C° 0 mm 6 mps 736 mmHg 17%
    03:00 +16°C° 0 mm 6 mps 736 mmHg 16%
    04:00 +16°C° 0 mm 5 mps 736 mmHg 16%
    05:00 +16°C° 0 mm 5 mps 736 mmHg 16%
    06:00 +16°C° 0 mm 5 mps 735 mmHg 15%
    07:00 +15°C° 0 mm 5 mps 735 mmHg 15%
    08:00 +17°C° 0 mm 6 mps 736 mmHg 13%
    09:00 +20°C° 0 mm 7 mps 736 mmHg 11%
    10:00 +22°C° 0 mm 8 mps 736 mmHg 9%
    11:00 +24°C° 0 mm 8 mps 736 mmHg 8%
    12:00 +28°C° 0 mm 8 mps 735 mmHg 7%
    13:00 +31°C° 0 mm 8 mps 735 mmHg 6%
    14:00 +32°C° 0 mm 7 mps 734 mmHg 6%
    15:00 +32°C° 0 mm 6 mps 734 mmHg 6%
    16:00 +32°C° 0 mm 5 mps 733 mmHg 6%
    17:00 +29°C° 0 mm 4 mps 734 mmHg 7%
    18:00 +27°C° 0 mm 3 mps 734 mmHg 9%
    19:00 +24°C° 0 mm 2 mps 734 mmHg 10%
    20:00 +23°C° 0 mm 2 mps 734 mmHg 10%
    21:00 +21°C° 0 mm 2 mps 735 mmHg 11%
    22:00 +20°C° 0 mm 2 mps 735 mmHg 11%
    23:00 +20°C° 0 mm 3 mps 735 mmHg 11%
    Show more